Flag for Germany Weather past 2 weeks in Halle, Saxony-Anhalt, Germany

Now
52 °F

Clear.


Feels Like: 50 °F
Forecast: 49 / 65 °F
Wind: 6 mph from Northeast

Location: Leipzig-Schkeuditz


UV Index: 3 (Moderate)

Visibility: 10 mi


Pressure: 29.80 "Hg

Humidity: 82%

Dew point: 46 °F

Location of HalleLocation

Historic Weather in Halle

°F

Halle temperature yesterday

Maximum temperature yesterday: 66 °F (at 5:20 PM)
Minimum temperature yesterday: 34 °F (at 3:20 AM)
Average temperature yesterday: 48 °F

Past Weeks' High & Low Weather Summary

 TemperatureHumidityPressure
High70 °F (Apr 7, 3:50 PM)100% (Apr 6, 3:50 AM)30.45 "Hg (Apr 6, 3:50 AM)
Low34 °F (Apr 17, 5:20 AM)33% (Apr 17, 1:20 PM)29.77 "Hg (Apr 14, 6:20 AM)
Average50 °F75%30.03 "Hg
* Reported Apr 5 10:20 PM — Apr 20 10:20 PM, Halle, Weather by CustomWeather, © 2014

Note: Actual official high and low records may vary slightly from our data, if they occured in-between our weather recording intervals... More about our weather records

Advertising

Historic Weather Conditions — Data for Previous 24 hours

 ConditionsComfort  
Time TempWeatherWind HumidityBarometerVisibility
10:20 PM
Apr 20
55 °FClear.7 mph72%29.80 "Hg10 mi
9:50 PM54 °FClear.8 mph77%29.80 "Hg10 mi
9:20 PM54 °FClear.8 mph77%29.80 "Hg10 mi
8:50 PM55 °FSunny.10 mph67%29.80 "Hg10 mi
8:20 PM59 °FPartly sunny.12 mph59%29.80 "HgN/A
7:50 PM59 °FPartly sunny.13 mph59%29.80 "HgN/A
7:20 PM61 °FPartly sunny.15 mph55%29.80 "HgN/A
6:50 PM63 °FPartly sunny.16 mph56%29.80 "HgN/A
6:20 PM64 °FPartly sunny.16 mph49%29.80 "HgN/A
5:50 PM66 °FPartly sunny.16 mph43%29.80 "HgN/A
5:20 PM66 °FPartly sunny.16 mph43%29.80 "HgN/A
4:50 PM66 °FScattered clouds.16 mph49%29.80 "HgN/A
4:20 PM66 °FScattered clouds.15 mph49%29.80 "HgN/A
3:50 PM64 °FScattered clouds.14 mph49%29.83 "HgN/A
3:20 PM64 °FScattered clouds.16 mph52%29.83 "HgN/A
2:50 PM64 °FScattered clouds.17 mph52%29.83 "HgN/A
2:20 PM64 °FScattered clouds.14 mph60%29.86 "HgN/A
1:50 PM63 °FScattered clouds.16 mph64%29.86 "HgN/A
1:20 PM63 °FScattered clouds.15 mph56%29.86 "HgN/A
12:50 PM63 °FScattered clouds.16 mph59%29.86 "HgN/A
12:20 PM63 °FScattered clouds.16 mph59%29.86 "HgN/A
11:50 AM61 °FScattered clouds.17 mph59%29.86 "HgN/A
11:20 AM61 °FScattered clouds.18 mph59%29.86 "HgN/A
10:50 AM59 °FScattered clouds.17 mph68%29.86 "HgN/A
10:20 AM59 °FScattered clouds.18 mph72%29.86 "HgN/A
9:50 AM59 °FPassing clouds.18 mph72%29.86 "HgN/A
9:20 AM57 °FScattered clouds.21 mph72%29.86 "HgN/A
8:50 AM57 °FScattered clouds.17 mph72%29.86 "HgN/A
8:20 AM55 °FSunny.14 mph77%29.86 "Hg10 mi
7:50 AM54 °FSunny.12 mph82%29.86 "Hg10 mi
7:20 AM52 °FSunny.10 mph88%29.86 "Hg10 mi
6:50 AM54 °FClear.12 mph82%29.86 "Hg10 mi
6:20 AM54 °FClear.14 mph82%29.83 "Hg10 mi
5:50 AM52 °FClear.10 mph88%29.83 "Hg10 mi
5:20 AM54 °FClear.12 mph82%29.83 "Hg10 mi
4:50 AM54 °FClear.9 mph82%29.86 "Hg10 mi
4:20 AM54 °FClear.13 mph82%29.86 "Hg10 mi
3:50 AM54 °FClear.13 mph82%29.86 "Hg10 mi
3:20 AM54 °FClear.12 mph88%29.89 "Hg10 mi
2:50 AM54 °FClear.12 mph88%29.89 "Hg10 mi
2:20 AM55 °FClear.13 mph82%29.89 "Hg10 mi
1:50 AM55 °FClear.12 mph82%29.89 "Hg10 mi
1:20 AM57 °FClear.12 mph82%29.89 "Hg10 mi
12:50 AM57 °FClear.10 mph82%29.89 "Hg10 mi
12:20 AM55 °FClear.9 mph88%29.89 "Hg10 mi
11:50 PM
Apr 19
54 °FClear.9 mph88%29.89 "Hg10 mi
11:20 PM54 °FClear.9 mph82%29.92 "Hg10 mi
Weather by CustomWeather, © 2014

See weather overview